Regional Weather Roundup
Issued by NWS State College, PA

Home | Current Version | Previous Version | Graphics & Text | Print | Product List | Glossary Off
Versions: 1 2 3 4 5 6 7 8 9 10 11 12 13 14 15 16 17 18 19 20 21 22 23 24 25 26 27 28 29 30 31 32 33 34 35 36 37 38 39 40 41 42 43 44 45 46 47 48 49 50

000
ASUS41 KCTP 271210
RWRCTP

REGIONAL WEATHER ROUNDUP
NATIONAL WEATHER SERVICE STATE COLLEGE PA
700 AM EST THU NOV 27 2014

Note: "fair" indicates few or no clouds below 12,000 feet with no
significant weather and/or obstructions to visibility.

* = STATION THAT DOES NOT REPORT PRECIPITATION /E.G. RAIN...SNOW...ETC/
    THUNDER OR FOG.

PAZ002>004-007>009-013>016-020>023-029>032-271300-
WESTERN PENNSYLVANIA

CITY           SKY/WX    TMP DP  RH WIND       PRES   REMARKS
ERIE           CLOUDY    32  26  78 E3        30.04R
MEADVILLE      FLURRIES  31  28  89 N3        29.99R
FRANKLIN*      CLOUDY    30  27  86 W5        29.99S
NEW CASTLE     MIX PCPN  31  28  88 CALM      30.03R
BEAVER COUNTY  NOT AVBL
BUTLER*        CLOUDY    30  28  93 SW5       30.02R
PITTSBURGH INT CLOUDY    31  29  92 W3        30.01R FOG
PITTSBURGH     CLOUDY    32  28  85 VRB6      30.01R FOG
INDIANA*       CLOUDY    32  32 100 CALM      30.03R FOG
LATROBE        CLOUDY    32  32 100 W7        30.03R FOG
WASHINGTON CO* MOCLDY    32  28  86 W3        30.03R
$$

PAZ004>006-010>012-017>019-024>028-033>037-041-042-045-046-049>053-271300-
CENTRAL PENNSYLVANIA

CITY           SKY/WX    TMP DP  RH WIND       PRES   REMARKS
BRADFORD       CLOUDY    26  22  84 E5        29.95S FOG
DUBOIS         CLOUDY    29  27  92 CALM      29.96R FOG
CLEARFIELD     CLOUDY    30  28  92 CALM      29.98R
JOHNSTOWN      CLOUDY    28  26  92 NW5       29.94R FOG
ALTOONA        CLOUDY    30  30 100 CALM      29.98R FOG
STATE COLLEGE  CLOUDY    30  28  93 CALM      29.98R FOG
WILLIAMSPORT   CLOUDY    31  27  85 W6        30.01R
SELINSGROVE    CLOUDY    31  29  92 CALM      30.01R
FT INDIANTOWN  CLOUDY    33  26  77 VRB1      30.00R
CAPITAL CITY   MOCLDY    33  28  81 W5        30.02R
HARRISBURG     MOCLDY    33  27  78 NW6       30.01R
YORK           MOCLDY    30  27  88 W3        30.01R
$$

PAZ038>040-043-044-047-048-054-055-060>062-067>071-271300-
EASTERN PENNSYLVANIA

CITY           SKY/WX    TMP DP  RH WIND       PRES   REMARKS
SCRANTON       FLURRIES  30  25  81 VRB6      29.96R
MOUNT POCONO   LGT SNOW  27  23  85 NW12      29.88R FOG
ALLENTOWN      CLOUDY    34  28  80 W5        29.98R
QUAKERTOWN*    PTSUNNY   32  30  93 CALM      29.98R
READING        CLOUDY    34  30  85 NW3       29.99R
LANCASTER      CLOUDY    33  28  81 W6        30.00R
COATESVILLE    CLOUDY    32  30  93 NW7       29.99R
POTTSTOWN      CLOUDY    33  30  88 W5        30.00R
BLUE BELL      MOCLDY    34  32  93 CALM      29.98R
DOYLESTOWN     CLOUDY    32  31  96 W5        29.97R
WILLOW GROVE   NOT AVBL
NORTH PHILA    CLOUDY    36  30  79 NW6       30.00R
PHILADELPHIA   CLOUDY    36  30  80 NW5       30.01R
$$


USA.gov is the U.S. government's official web portal to all federal, state and local government web resources and services.